{"data":{"norad_id":56480,"intl_designator":"2023-064AJ","name":"STARLINK-6214","alt_names":[],"object_type":"PAYLOAD","status":"ACTIVE","operator":null,"country":"US","launch_date":"2023-05-10","launch_site_code":"AFWTR","launch_vehicle":null,"mission":null,"orbit_class":"UNKNOWN","rcs_meters":null,"size_class":null,"mass_kg":null,"dimensions":null,"purposes":["comms"],"wikipedia_slug":null,"has_3d_model":false,"image_url":null,"decayed_at":null,"tle_current":{"epoch":"2026-05-24T17:34:02.620128Z","epoch_age_seconds":97930,"freshness":"FRESH","line1":"1 56480U 23064AJ  26144.73197477  .00014476  00000+0  41342-3 0  9998","line2":"2 56480  69.9916 252.2154 0003255 282.6291  77.4523 15.36109025168141","mean_motion":15.36109025,"eccentricity":0.0003255,"inclination_deg":69.9916,"raan_deg":252.2154,"arg_perigee_deg":282.6291,"mean_anomaly_deg":77.4523,"bstar":0.00041342,"rev_number":16814,"period_min":93.743346114381,"perigee_km":455.40332618362,"apogee_km":459.85340943806,"semimajor_km":6835.7653678108,"source":"CELESTRAK","updated_at":"2026-05-25T13:38:18.073160Z"}}}